| time (UTC) | temp F | wind direction | speed MPH | gust MPH | rain 1hr in | rain 24hr in | rain mn in | humidity % | barometer mb |
| 20260507065053 | 50 | 0 | 0.0 | 0.0 | 0.00 | 0.07 | 0.00 | 85 | 1013.2 |
| 20260507064011 | 49 | 0 | 0.0 | 0.0 | 0.00 | 0.08 | 0.00 | 87 | 1013.1 |
| 20260507063015 | 49 | 0 | 0.0 | 0.0 | 0.00 | 0.09 | 0.00 | 91 | 1013.0 |
| 20260507061021 | 48 | 0 | 0.0 | 0.0 | 0.00 | 0.10 | 0.00 | 96 | 1012.9 |
| 20260507060012 | 47 | 0 | 0.0 | 0.0 | 0.00 | 0.10 | 0.00 | 98 | 1012.9 |
| 20260507054013 | 46 | 0 | 0.0 | 0.0 | 0.00 | 0.10 | 0.00 | 99 | 1012.8 |
| 20260507053012 | 46 | 0 | 0.0 | 0.0 | 0.00 | 0.15 | 0.00 | 99 | 1012.7 |
| 20260507044021 | 45 | 0 | 0.0 | 0.0 | 0.00 | 0.15 | 0.00 | 10 | 1012.2 |
| 20260507043020 | 45 | 0 | 0.0 | 0.0 | 0.00 | 0.17 | 0.00 | 10 | 1012.1 |
| 20260507042021 | 45 | 0 | 0.0 | 0.0 | 0.00 | 0.17 | 0.00 | 10 | 1012.1 |
| 20260507040021 | 46 | 0 | 0.0 | 0.0 | 0.00 | 0.18 | 0.00 | 10 | 1011.8 |
| 20260507035014 | 46 | 0 | 0.0 | 0.0 | 0.00 | 0.19 | 0.00 | 99 | 1011.8 |
| 20260507033016 | 45 | 0 | 0.0 | 0.0 | 0.00 | 0.20 | 0.00 | 99 | 1011.8 |
| 20260507025015 | 46 | 0 | 0.0 | 0.0 | 0.00 | 0.24 | 0.00 | 99 | 1011.6 |
| 20260507023015 | 46 | 0 | 0.0 | 0.0 | 0.00 | 0.24 | 0.00 | 98 | 1011.5 |
| 20260507022015 | 46 | 0 | 0.0 | 0.0 | 0.00 | 0.26 | 0.00 | 97 | 1011.4 |
| 20260507020021 | 46 | 0 | 0.0 | 0.0 | 0.00 | 0.28 | 0.00 | 96 | 1011.2 |
| 20260507015016 | 46 | 0 | 0.0 | 0.0 | 0.00 | 0.28 | 0.00 | 96 | 1011.2 |
| 20260507013015 | 46 | 0 | 0.0 | 0.0 | 0.00 | 0.29 | 0.00 | 95 | 1011.3 |
| 20260507011012 | 46 | 0 | 0.0 | 0.0 | 0.00 | 0.31 | 0.00 | 94 | 1011.3 |
| 20260507004013 | 46 | 0 | 0.0 | 0.0 | 0.00 | 0.35 | 0.00 | 93 | 1011.2 |
| 20260507003015 | 46 | 0 | 0.0 | 0.0 | 0.00 | 0.35 | 0.00 | 95 | 1011.1 |
| 20260507002021 | 46 | 0 | 0.0 | 0.0 | 0.00 | 0.36 | 0.00 | 96 | 1011.1 |
| 20260507001012 | 46 | 0 | 0.0 | 0.0 | 0.00 | 0.36 | 0.00 | 97 | 1011.0 |
| 20260507000054 | 46 | 0 | 0.0 | 0.0 | 0.00 | 0.44 | 0.00 | 97 | 1011.0 |
| 20260506235015 | 46 | 0 | 0.0 | 0.0 | 0.00 | 0.44 | 0.00 | 97 | 1010.9 |
| 20260506233016 | 46 | 0 | 0.0 | 0.0 | 0.00 | 0.44 | 0.00 | 97 | 1010.8 |
| 20260506231015 | 47 | 0 | 0.0 | 0.0 | 0.00 | 0.44 | 0.00 | 96 | 1010.7 |
| 20260506225029 | 47 | 0 | 0.0 | 0.0 | 0.00 | 0.46 | 0.00 | 96 | 1010.6 |
| 20260506221016 | 47 | 0 | 0.0 | 0.0 | 0.00 | 0.50 | 0.00 | 95 | 1010.3 |
| 20260506220111 | 47 | 0 | 0.0 | 0.0 | 0.00 | 0.50 | 0.00 | 95 | 1010.2 |
| 20260506213105 | 47 | 0 | 0.0 | 0.0 | 0.00 | 0.53 | 0.50 | 93 | 1010.0 |
| 20260506212025 | 47 | 0 | 0.0 | 0.0 | 0.00 | 0.54 | 0.50 | 93 | 1009.9 |
| 20260506210043 | 47 | 0 | 0.0 | 0.0 | 0.00 | 0.57 | 0.50 | 92 | 1009.6 |
| 20260506202021 | 47 | 0 | 0.0 | 0.0 | 0.00 | 0.61 | 0.50 | 91 | 1009.5 |
| 20260506194016 | 46 | 0 | 0.0 | 0.0 | 0.00 | 0.64 | 0.50 | 89 | 1009.2 |
| 20260506192019 | 47 | 0 | 0.0 | 0.0 | 0.00 | 0.66 | 0.50 | 88 | 1009.0 |
| 20260506191049 | 47 | 0 | 0.0 | 0.0 | 0.00 | 0.66 | 0.50 | 90 | 1008.9 |
| 20260506190038 | 48 | 0 | 0.0 | 0.0 | 0.00 | 0.67 | 0.50 | 89 | 1008.7 |
| 20260506183104 | 49 | 0 | 0.0 | 0.0 | 0.00 | 0.70 | 0.50 | 88 | 1008.4 |
| 20260506182104 | 50 | 0 | 0.0 | 0.0 | 0.00 | 0.70 | 0.50 | 86 | 1008.3 |
| 20260506181021 | 51 | 0 | 0.0 | 0.0 | 0.00 | 0.74 | 0.50 | 84 | 1008.1 |
| 20260506180036 | 52 | 0 | 0.0 | 0.0 | 0.00 | 0.74 | 0.50 | 83 | 1007.9 |
| 20260506175022 | 52 | 0 | 0.0 | 0.0 | 0.00 | 0.74 | 0.50 | 84 | 1007.7 |
| 20260506174017 | 52 | 0 | 0.0 | 0.0 | 0.00 | 0.74 | 0.50 | 81 | 1007.6 |
| 20260506173016 | 52 | 0 | 0.0 | 0.0 | 0.00 | 0.74 | 0.50 | 83 | 1007.5 |
| 20260506172021 | 53 | 0 | 0.0 | 0.0 | 0.00 | 0.74 | 0.50 | 81 | 1007.3 |
| 20260506165016 | 54 | 0 | 0.0 | 0.0 | 0.00 | 0.74 | 0.50 | 80 | 1007.1 |
| 20260506164059 | 53 | 0 | 0.0 | 0.0 | 0.00 | 0.74 | 0.50 | 83 | 1007.1 |
| 20260506162055 | 53 | 0 | 0.0 | 0.0 | 0.00 | 0.74 | 0.50 | 85 | 1007.1 |
| 20260506161015 | 53 | 0 | 0.0 | 0.0 | 0.00 | 0.74 | 0.50 | 85 | 1007.2 |
| 20260506160015 | 53 | 0 | 0.0 | 0.0 | 0.00 | 0.74 | 0.50 | 84 | 1007.2 |
| 20260506154022 | 55 | 0 | 0.0 | 0.0 | 0.00 | 0.74 | 0.50 | 83 | 1006.9 |
| 20260506152016 | 55 | 0 | 0.0 | 0.0 | 0.00 | 0.74 | 0.50 | 84 | 1006.8 |
| 20260506150017 | 54 | 0 | 0.0 | 0.0 | 0.00 | 0.74 | 0.50 | 82 | 1006.8 |
| 20260506145100 | 54 | 0 | 0.0 | 0.0 | 0.00 | 0.74 | 0.50 | 85 | 1006.7 |
| 20260506143030 | 54 | 0 | 0.0 | 0.0 | 0.00 | 0.74 | 0.50 | 86 | 1006.8 |
| 20260506141056 | 54 | 0 | 0.0 | 0.0 | 0.00 | 0.74 | 0.50 | 87 | 1006.9 |
| 20260506140017 | 54 | 0 | 0.0 | 0.0 | 0.00 | 0.74 | 0.50 | 87 | 1006.9 |
| 20260506135057 | 53 | 0 | 0.0 | 0.0 | 0.00 | 0.74 | 0.50 | 87 | 1006.9 |
| 20260506132058 | 52 | 0 | 0.0 | 0.0 | 0.00 | 0.74 | 0.50 | 91 | 1007.0 |
| 20260506131022 | 51 | 0 | 0.0 | 0.0 | 0.00 | 0.74 | 0.50 | 91 | 1007.0 |
| 20260506130014 | 51 | 0 | 0.0 | 0.0 | 0.00 | 0.74 | 0.50 | 91 | 1007.0 |
| 20260506125016 | 51 | 0 | 0.0 | 0.0 | 0.00 | 0.74 | 0.50 | 90 | 1006.9 |
| 20260506123022 | 51 | 0 | 0.0 | 0.0 | 0.00 | 0.74 | 0.50 | 88 | 1006.8 |
| 20260506121016 | 53 | 0 | 0.0 | 0.0 | 0.00 | 0.74 | 0.50 | 88 | 1006.6 |
| 20260506114046 | 52 | 0 | 0.0 | 0.0 | 0.01 | 0.74 | 0.50 | 94 | 1006.6 |
| 20260506113057 | 51 | 0 | 0.0 | 0.0 | 0.01 | 0.74 | 0.50 | 95 | 1006.6 |
| 20260506112057 | 51 | 0 | 0.0 | 0.0 | 0.01 | 0.74 | 0.50 | 97 | 1006.7 |
| 20260506110054 | 50 | 0 | 0.0 | 0.0 | 0.01 | 0.74 | 0.50 | 96 | 1006.8 |
| 20260506104056 | 50 | 0 | 0.0 | 0.0 | 0.01 | 0.74 | 0.50 | 98 | 1006.7 |
| 20260506103056 | 49 | 0 | 0.0 | 0.0 | 0.00 | 0.73 | 0.50 | 98 | 1006.8 |
| 20260506102021 | 49 | 0 | 0.0 | 0.0 | 0.00 | 0.73 | 0.50 | 99 | 1006.7 |
| 20260506094029 | 48 | 0 | 0.0 | 0.0 | 0.03 | 0.75 | 0.50 | 99 | 1006.4 |
| 20260506092026 | 48 | 0 | 0.0 | 0.0 | 0.03 | 0.78 | 0.50 | 99 | 1006.3 |
| 20260506090023 | 48 | 0 | 0.0 | 0.0 | 0.03 | 0.77 | 0.49 | 10 | 1006.2 |
| 20260506085055 | 48 | 0 | 0.0 | 0.0 | 0.02 | 0.76 | 0.48 | 10 | 1006.1 |
| 20260506084022 | 47 | 0 | 0.0 | 0.0 | 0.02 | 0.76 | 0.48 | 10 | 1006.0 |
| 20260506081023 | 47 | 0 | 0.0 | 0.0 | 0.02 | 0.75 | 0.46 | 10 | 1005.8 |
| 20260506073033 | 47 | 0 | 0.0 | 0.0 | 0.04 | 0.74 | 0.46 | 10 | 1005.5 |